STARLINK-35160, 65911

Orbit data source: Space-Track

STARLINK-35160, 65911 is a payload satellite owned by SpaceX/Seattle (US) in LEO that was launched on Wed, 08 Oct 2025 UTC via an FALCON 9 launch vehicle from the Air Force Western Test Range (AFWTR). Payload-class satellites include a variety of spacecraft equipped with specific instruments for various scientific and technological missions. These include communications satellites like Starlink; space stations such as the ISS; scientific satellites like the Hubble; Earth observation satellites from companies like Planet Labs, Umbra, and HawkEye 360; GPS; miniature CubeSats for education and research; and military/defense satellites.

Loading next visibility...
Identifier
65911, 2025-225B
Orbit
LEO
Country
Flag of USUS
Related business
Manufacturer
SpaceX/Seattle
Mission
Operational Commercial Communications
Bus & Motor
STARLINK V2MO, Unknown motor
Mass
575 kg wet, ~530 kg dry
Launch date (UTC)
2025-10-08 (8 months ago)
Launch vehicle
FALCON 9
Launch site
Air Force Western Test Range (AFWTR)
Object type
Payload
Rocket body
Debris
Shape & HBR
Box + 2 Pan, 17.7 m
Radar Cross Section
36.964 m², Large (>1 m²)

Expand to show TLE details & history
Last TLE update: 10 hours ago

TLE from 10 hours ago
0 STARLINK-35160
1 65911U 25225B   26151.35590213  .00016280  00000-0  49206-3 0  9992
2 65911  53.1598 141.7811 0001239  87.2274 272.8871 15.34390096 37064
Epoch: 2026-05-31T08:32Z
TLE epoch observation values (Epoch: 2026-05-31T08:32:29.944Z)
Latitude
0.00005°
Longitude
124.79761°
Altitude
463.591 km
Speed
7.636 km/s
True Right ascension
09h 27m 07s
True Declination
0° 00' 00"
Sunlit
Object was in daylight at epoch
Visualization orbit readout
Latitude
Unknown
Longitude
Unknown
Altitude
Unknown
Speed
Unknown
Apparent Right ascension
Unknown
Apparent Declination
Unknown
Sunlit
N/A
Visualization observer readout
Local Sidereal Time
04:02:24
Azimuth
Unknown
Elevation
Unknown
Doppler factor
Unknown
Orbital elements
Apogee altitude
463.837 km
Perigee altitude
462.142 km
Semi-major axis
6,841.127 km
Eccentricity
0.00012
Inclination
53.1598°
RAAN
141.7811°
Arg. of periapsis
87.2274°
True anomaly
272.87292°
Mean anomaly
272.8871°
Eccentric anomaly
272.88001°
Mean motion
3.83576 °/min
Orbital period
93.85 mins
BSTAR
0.00049206
Loading maneuver chart data...
Computing Atmospheric mass density...
Loading historical data...
Loading historical data...
Loading historical data...
Loading historical data...
Loading historical data...
Loading historical data...
Loading historical data...

Documentation

Showing up to 5 results
|